Terminal Aerodrome Forecast
Issued by NWS

Home | Current Version | Previous Version | Graphics & Text | Print | Product List | Glossary On
Versions: 1 2 3 4 5 6 7 8 9 10 11 12
776
FTUS43 KTOP 160520
TAFMHK
TAF
KMHK 160520Z 1606/1706 22003KT P6SM SKC
     FM161700 20010KT P6SM SKC=

USA.gov is the U.S. government's official web portal to all federal, state and local government web resources and services.